SWA2250 PHNL-PHTO

Flight info

Callsign SWA2250
Flight time 0h 36m
Altitude 25000
Route MKK5 MKK POHOU LYCHI1
Aircraft B38M/M-SADE2E3GHIJ4J7P2RWZ/LB1D1

Departure

Time 2026-04-21 01:59
Airport Daniel K. Inouye International Airport (PHNL)

Arrival

Time 2026-04-21 02:36
Airport Hilo International Airport (PHTO)
Time Latitude Longitude Altitude Speed Heading
2026-04-21 01:36 21.32951 -157.91957 26 ft 0 kts 279°
2026-04-21 01:49 21.32947 -157.91935 26 ft 4 kts 278°
2026-04-21 01:49 21.32947 -157.91907 26 ft 4 kts 246°
2026-04-21 01:50 21.32955 -157.91897 26 ft 2 kts 202°
2026-04-21 01:50 21.32934 -157.91902 26 ft 4 kts 186°
2026-04-21 01:50 21.32913 -157.91906 26 ft 4 kts 189°
2026-04-21 01:50 21.32886 -157.91910 26 ft 4 kts 188°
2026-04-21 01:51 21.32859 -157.91914 26 ft 4 kts 189°
2026-04-21 01:51 21.32844 -157.91917 26 ft 1 kts 189°
2026-04-21 01:53 21.32841 -157.91917 26 ft 1 kts 189°
2026-04-21 01:54 21.32814 -157.91922 26 ft 7 kts 190°
2026-04-21 01:54 21.32774 -157.91970 26 ft 12 kts 270°
2026-04-21 01:54 21.32773 -157.92083 26 ft 18 kts 269°
2026-04-21 01:54 21.32773 -157.92239 27 ft 23 kts 270°
2026-04-21 01:55 21.32773 -157.92416 27 ft 25 kts 270°
2026-04-21 01:55 21.32775 -157.92605 27 ft 25 kts 271°
2026-04-21 01:55 21.32758 -157.92763 27 ft 18 kts 249°
2026-04-21 01:55 21.32739 -157.92888 27 ft 17 kts 276°
2026-04-21 01:56 21.32743 -157.93021 27 ft 19 kts 270°
2026-04-21 01:56 21.32742 -157.93170 27 ft 21 kts 270°
2026-04-21 01:56 21.32743 -157.93332 27 ft 23 kts 270°
2026-04-21 01:56 21.32742 -157.93510 27 ft 25 kts 269°
2026-04-21 01:57 21.32742 -157.93703 27 ft 27 kts 270°
2026-04-21 01:57 21.32741 -157.93907 27 ft 28 kts 270°
2026-04-21 01:57 21.32742 -157.94114 27 ft 27 kts 270°
2026-04-21 01:57 21.32742 -157.94265 27 ft 13 kts 270°
2026-04-21 01:58 21.32708 -157.94327 27 ft 10 kts 188°
2026-04-21 01:58 21.32627 -157.94327 27 ft 13 kts 179°
2026-04-21 01:58 21.32538 -157.94320 27 ft 12 kts 151°
2026-04-21 01:58 21.32525 -157.94224 27 ft 22 kts 89°
2026-04-21 01:59 21.32524 -157.93790 27 ft 94 kts 90°
2026-04-21 01:59 21.32526 -157.92868 27 ft 153 kts 90°
2026-04-21 01:59 21.32508 -157.91614 343 ft 176 kts 93°
2026-04-21 01:59 21.32394 -157.90281 1095 ft 182 kts 107°
2026-04-21 02:00 21.31738 -157.89094 1639 ft 197 kts 139°
2026-04-21 02:00 21.30466 -157.88353 2104 ft 218 kts 161°
2026-04-21 02:00 21.29007 -157.87838 2911 ft 224 kts 163°
2026-04-21 02:00 21.27483 -157.87357 3677 ft 233 kts 165°
2026-04-21 02:01 21.25883 -157.86864 4321 ft 248 kts 164°
2026-04-21 02:01 21.24155 -157.86320 4882 ft 268 kts 164°
2026-04-21 02:01 21.22313 -157.85743 5503 ft 280 kts 164°
2026-04-21 02:01 21.20449 -157.85151 6434 ft 280 kts 164°
2026-04-21 02:02 21.18650 -157.84325 7205 ft 285 kts 145°
2026-04-21 02:02 21.17308 -157.82748 8008 ft 291 kts 119°
2026-04-21 02:02 21.16665 -157.80708 8793 ft 296 kts 101°
2026-04-21 02:02 21.16319 -157.78515 9556 ft 302 kts 99°
2026-04-21 02:03 21.15986 -157.76277 10290 ft 309 kts 99°
2026-04-21 02:03 21.15636 -157.73940 10681 ft 328 kts 101°
2026-04-21 02:03 21.15062 -157.71501 10992 ft 347 kts 111°
2026-04-21 02:03 21.14102 -157.69073 11468 ft 360 kts 114°
2026-04-21 02:04 21.13129 -157.66573 12200 ft 364 kts 113°
2026-04-21 02:04 21.12168 -157.64044 13005 ft 369 kts 112°
2026-04-21 02:04 21.11205 -157.61472 13782 ft 374 kts 112°
2026-04-21 02:04 21.10241 -157.58875 14473 ft 379 kts 112°
2026-04-21 02:05 21.09259 -157.56220 15152 ft 385 kts 112°
2026-04-21 02:05 21.08285 -157.53587 15813 ft 390 kts 112°
2026-04-21 02:05 21.07262 -157.50819 16478 ft 395 kts 112°
2026-04-21 02:05 21.06244 -157.48064 17126 ft 400 kts 111°
2026-04-21 02:06 21.05211 -157.45271 17763 ft 406 kts 111°
2026-04-21 02:06 21.04165 -157.42446 18370 ft 410 kts 111°
2026-04-21 02:06 21.03108 -157.39592 18907 ft 415 kts 111°
2026-04-21 02:06 21.02038 -157.36705 19452 ft 419 kts 111°
2026-04-21 02:07 21.00957 -157.33789 20008 ft 423 kts 111°
2026-04-21 02:07 20.99878 -157.30883 20536 ft 428 kts 110°
2026-04-21 02:07 20.98775 -157.27911 21074 ft 432 kts 110°
2026-04-21 02:07 20.97660 -157.24910 21609 ft 436 kts 110°
2026-04-21 02:08 20.96531 -157.21878 22122 ft 440 kts 110°
2026-04-21 02:08 20.95395 -157.18821 22635 ft 444 kts 110°
2026-04-21 02:08 20.94244 -157.15727 23159 ft 448 kts 110°
2026-04-21 02:08 20.93086 -157.12618 23670 ft 453 kts 110°
2026-04-21 02:09 20.91916 -157.09478 24099 ft 457 kts 110°
2026-04-21 02:09 20.90734 -157.06309 24538 ft 460 kts 110°
2026-04-21 02:09 20.89538 -157.03105 24924 ft 466 kts 110°
2026-04-21 02:09 20.88331 -156.99871 25044 ft 473 kts 110°
2026-04-21 02:10 20.87093 -156.96559 25048 ft 484 kts 110°
2026-04-21 02:10 20.85830 -156.93182 25050 ft 493 kts 110°
2026-04-21 02:10 20.84558 -156.89785 25055 ft 501 kts 110°
2026-04-21 02:10 20.83254 -156.86301 25061 ft 508 kts 110°
2026-04-21 02:11 20.81955 -156.82835 25063 ft 511 kts 110°
2026-04-21 02:11 20.80634 -156.79311 25067 ft 511 kts 110°
2026-04-21 02:11 20.79309 -156.75780 25060 ft 511 kts 110°
2026-04-21 02:11 20.77988 -156.72262 25050 ft 511 kts 110°
2026-04-21 02:12 20.76663 -156.68736 25041 ft 510 kts 110°
2026-04-21 02:12 20.75338 -156.65214 25011 ft 510 kts 110°
2026-04-21 02:12 20.74016 -156.61700 25011 ft 510 kts 110°
2026-04-21 02:12 20.72688 -156.58173 24888 ft 510 kts 110°
2026-04-21 02:13 20.71374 -156.54687 24638 ft 501 kts 110°
2026-04-21 02:13 20.70083 -156.51264 24404 ft 493 kts 110°
2026-04-21 02:13 20.68802 -156.47870 24157 ft 492 kts 110°
2026-04-21 02:13 20.67525 -156.44488 23876 ft 491 kts 110°
2026-04-21 02:14 20.66200 -156.41137 23514 ft 491 kts 112°
2026-04-21 02:14 20.64828 -156.37797 23091 ft 491 kts 112°
2026-04-21 02:14 20.63465 -156.34460 22646 ft 489 kts 112°
2026-04-21 02:14 20.62128 -156.31177 22217 ft 486 kts 112°
2026-04-21 02:15 20.60785 -156.27883 21768 ft 482 kts 112°
2026-04-21 02:15 20.59443 -156.24621 21296 ft 475 kts 113°
2026-04-21 02:15 20.58124 -156.21422 20831 ft 467 kts 113°
2026-04-21 02:15 20.56823 -156.18267 20372 ft 460 kts 113°
2026-04-21 02:16 20.55544 -156.15165 19921 ft 454 kts 113°
2026-04-21 02:16 20.54706 -156.13135 19626 ft 449 kts 114°
2026-04-21 02:16 20.53452 -156.10096 19187 ft 444 kts 114°
2026-04-21 02:16 20.52213 -156.07099 18751 ft 438 kts 114°
2026-04-21 02:17 20.50991 -156.04141 18319 ft 433 kts 114°
2026-04-21 02:17 20.49784 -156.01217 17826 ft 428 kts 114°
2026-04-21 02:17 20.48586 -155.98322 17342 ft 424 kts 115°
2026-04-21 02:17 20.47398 -155.95450 16808 ft 421 kts 115°
2026-04-21 02:18 20.46216 -155.92593 16291 ft 418 kts 115°
2026-04-21 02:18 20.45046 -155.89769 15774 ft 415 kts 115°
2026-04-21 02:18 20.43896 -155.86995 15279 ft 412 kts 115°
2026-04-21 02:18 20.42742 -155.84212 14781 ft 410 kts 115°
2026-04-21 02:19 20.41595 -155.81446 14303 ft 407 kts 115°
2026-04-21 02:19 20.40452 -155.78694 13832 ft 404 kts 115°
2026-04-21 02:19 20.39319 -155.75965 13307 ft 401 kts 115°
2026-04-21 02:19 20.38195 -155.73261 12790 ft 398 kts 115°
2026-04-21 02:20 20.37073 -155.70561 12280 ft 396 kts 115°
2026-04-21 02:20 20.35961 -155.67888 11775 ft 393 kts 115°
2026-04-21 02:20 20.34854 -155.65228 11278 ft 391 kts 115°
2026-04-21 02:20 20.33753 -155.62585 10791 ft 388 kts 115°
2026-04-21 02:21 20.32677 -155.60002 10494 ft 381 kts 115°
2026-04-21 02:21 20.31625 -155.57476 10391 ft 367 kts 115°
2026-04-21 02:21 20.30605 -155.55031 10284 ft 355 kts 115°
2026-04-21 02:21 20.29620 -155.52669 10237 ft 341 kts 115°
2026-04-21 02:22 20.28676 -155.50407 10193 ft 328 kts 115°
2026-04-21 02:22 20.27767 -155.48230 10141 ft 316 kts 115°
2026-04-21 02:22 20.26892 -155.46135 10089 ft 304 kts 115°
2026-04-21 02:22 20.26049 -155.44118 10028 ft 292 kts 115°
2026-04-21 02:23 20.25234 -155.42169 9917 ft 283 kts 115°
2026-04-21 02:23 20.24442 -155.40274 9738 ft 277 kts 115°
2026-04-21 02:23 20.23662 -155.38409 9500 ft 274 kts 115°
2026-04-21 02:23 20.22891 -155.36569 9242 ft 271 kts 116°
2026-04-21 02:24 20.22125 -155.34742 8969 ft 269 kts 116°
2026-04-21 02:24 20.21368 -155.32935 8688 ft 267 kts 116°
2026-04-21 02:24 20.20621 -155.31151 8392 ft 267 kts 115°
2026-04-21 02:24 20.19865 -155.29347 8089 ft 266 kts 115°
2026-04-21 02:25 20.19111 -155.27546 7794 ft 266 kts 115°
2026-04-21 02:25 20.18359 -155.25752 7495 ft 266 kts 115°
2026-04-21 02:25 20.17605 -155.23954 7208 ft 265 kts 116°
2026-04-21 02:25 20.16595 -155.22341 6888 ft 262 kts 141°
2026-04-21 02:26 20.15044 -155.21387 6624 ft 256 kts 158°
2026-04-21 02:26 20.13427 -155.20604 6390 ft 254 kts 157°
2026-04-21 02:26 20.11826 -155.19828 6158 ft 251 kts 157°
2026-04-21 02:26 20.10247 -155.19071 5953 ft 246 kts 157°
2026-04-21 02:27 20.08696 -155.18333 5754 ft 241 kts 157°
2026-04-21 02:27 20.07177 -155.17612 5559 ft 237 kts 157°
2026-04-21 02:27 20.05681 -155.16905 5358 ft 232 kts 157°
2026-04-21 02:27 20.04216 -155.16212 5152 ft 229 kts 156°
2026-04-21 02:28 20.02794 -155.15540 4950 ft 225 kts 156°
2026-04-21 02:28 20.01367 -155.14866 4754 ft 223 kts 156°
2026-04-21 02:28 19.99955 -155.14200 4526 ft 221 kts 156°
2026-04-21 02:28 19.98560 -155.13541 4300 ft 218 kts 156°
2026-04-21 02:29 19.97188 -155.12894 4118 ft 213 kts 156°
2026-04-21 02:29 19.95848 -155.12262 3929 ft 208 kts 156°
2026-04-21 02:29 19.94796 -155.11765 3786 ft 205 kts 155°
2026-04-21 02:29 19.93648 -155.11224 3624 ft 204 kts 155°
2026-04-21 02:30 19.92352 -155.10613 3492 ft 203 kts 155°
2026-04-21 02:30 19.91060 -155.10004 3315 ft 203 kts 155°
2026-04-21 02:30 19.89783 -155.09403 3146 ft 199 kts 155°
2026-04-21 02:30 19.88530 -155.08812 2938 ft 194 kts 154°
2026-04-21 02:31 19.87315 -155.08240 2727 ft 188 kts 155°
2026-04-21 02:31 19.86124 -155.07679 2532 ft 185 kts 154°
2026-04-21 02:31 19.84973 -155.07137 2355 ft 177 kts 153°
2026-04-21 02:31 19.83860 -155.06614 2170 ft 173 kts 154°
2026-04-21 02:32 19.82779 -155.06106 1964 ft 166 kts 153°
2026-04-21 02:32 19.81732 -155.05638 1773 ft 164 kts 160°
2026-04-21 02:32 19.80597 -155.05584 1659 ft 167 kts 192°
2026-04-21 02:32 19.79550 -155.06140 1512 ft 170 kts 213°
2026-04-21 02:33 19.78629 -155.06908 1453 ft 165 kts 220°
2026-04-21 02:33 19.77835 -155.07772 1374 ft 162 kts 224°
2026-04-21 02:33 19.77054 -155.08619 1401 ft 160 kts 218°
2026-04-21 02:33 19.76139 -155.09271 1344 ft 157 kts 203°
2026-04-21 02:34 19.75116 -155.09579 1258 ft 154 kts 182°
2026-04-21 02:34 19.74051 -155.09580 1085 ft 151 kts 169°
2026-04-21 02:34 19.73082 -155.09204 841 ft 149 kts 144°
2026-04-21 02:34 19.72405 -155.08410 616 ft 143 kts 113°
2026-04-21 02:35 19.72165 -155.07399 354 ft 143 kts 96°
2026-04-21 02:35 19.72142 -155.06352 199 ft 141 kts 92°
2026-04-21 02:35 19.72144 -155.05335 54 ft 132 kts 90°
2026-04-21 02:35 19.72142 -155.04508 53 ft 88 kts 90°
2026-04-21 02:36 19.72145 -155.04087 56 ft 22 kts 90°
2026-04-21 02:36 19.72105 -155.04040 52 ft 9 kts 193°
2026-04-21 02:36 19.72037 -155.04056 55 ft 9 kts 189°
2026-04-21 02:36 19.71969 -155.04059 51 ft 11 kts 180°
2026-04-21 02:37 19.71882 -155.04058 54 ft 14 kts 179°
2026-04-21 02:37 19.71775 -155.04057 51 ft 16 kts 180°
2026-04-21 02:37 19.71691 -155.04058 52 ft 9 kts 181°
2026-04-21 02:37 19.71647 -155.04104 53 ft 11 kts 259°
2026-04-21 02:38 19.71645 -155.04167 54 ft 5 kts 237°
2026-04-21 02:38 19.71618 -155.04176 54 ft 4 kts 183°
2026-04-21 02:38 19.71594 -155.04177 54 ft 3 kts 180°
2026-04-21 02:38 19.71578 -155.04177 52 ft 2 kts 180°
2026-04-21 02:39 19.71561 -155.04177 54 ft 2 kts 180°
2026-04-21 02:39 19.71557 -155.04177 54 ft 0 kts 181°